Probability
0 0 0 0 0 0 0 0 0 0 0 0 3 3 0 0 0 0 3 0 0 0 0 0 0 0 0 0 0 0 0 0 0 0 0 0 0 0 0 0 0 0 0 0
0 0 0 0 0 0 0 0 0 0 0 0 0 0 0 0 0 0 3 0 0 0 0 0 0 0 0 0 0 0 0 0 0 0 0 0 0 0 0 0 0 0 0 0
0 0 0 0 0 0 0 0 0 0 0 0 0 0 0 0 0 0 3 0 0 0 0 0 0 0 0 0 0 0 0 0 0 0 0 0 0 0 0 0 0 0 0 0
0 0 0 0 0 0 0 0 0 0 0 0 0 0 0 0 0 0 3 0 0 0 0 0 0 0 0 0 0 0 0 0 0 0 0 0 0 0 0 0 0 0 0 0
0 0 0 0 0 0 0 0 0 0 0 0 0 0 0 0 0 0 0 0 0 0 0 0 0 0 3 0 0 0 0 0 0 0 0 0 0 0 0 0 0 0 0 0
0 0 0 0 0 0 0 0 0 0 0 0 0 0 0 0 0 0 0 0 0 0 0 0 0 0 3 0 0 0 0 0 0 0 0 0 0 0 0 0 0 0 0 0
0 0 0 0 0 0 0 0 0 0 0 0 0 0 0 0 0 0 0 0 0 0 0 0 0 3 3 0 0 0 0 0 0 0 0 0 0 0 0 0 0 0 0 0
0 0 0 0 0 0 0 0 0 0 0 0 0 0 0 0 0 0 0 0 0 3 3 3 3 0 0 0 0 0 0 0 0 0 0 0 0 0 0 0 0 0 0 0
0 0 0 0 0 0 0 0 0 0 0 0 0 0 0 0 0 0 0 0 0 0 3 0 0 0 0 0 0 0 0 0 0 0 0 0 0 0 0 0 0 0 0 0
0 0 0 0 0 0 0 0 0 0 0 0 0 0 0 0 0 0 0 0 0 0 0 0 0 0 0 0 0 0 0 0 0 0 0 0 0 0 0 0 0 0 0 0
0 0 0 0 0 0 0 0 0 0 0 0 0 0 0 0 0 0 0 0 0 0 0 0 0 0 0 0 0 0 0 0 0 0 0 0 0 0 0 0 0 0 0 0
0 0 0 0 0 0 0 0 0 0 0 0 0 0 0 0 0 0 0 0 0 0 0 0 0 0 0 0 0 0 0 0 0 0 0 0 0 0 0 0 0 0 0 0
0 0 0 0 0 0 0 0 0 0 0 0 0 0 0 0 0 0 0 0 0 0 0 0 0 0 0 0 0 0 0 0 0 0 0 0 0 0 0 0 0 0 0 0
0 0 0 0 0 0 0 0 0 0 0 0 0 0 0 0 0 0 0 0 0 0 0 0 0 0 0 0 0 0 0 0 0 0 0 0 0 0 0 0 0 0 0 0
0 0 0 0 0 0 0 0 0 0 0 0 0 0 0 0 0 0 0 0 0 0 0 0 0 0 0 0 0 0 0 0 0 0 0 0 0 0 0 0 0 0 0 0
0 0 0 0 0 0 0 0 0 0 0 0 0 0 0 0 0 0 0 0 0 0 0 0 0 0 0 0 0 0 0 0 0 0 0 0 0 0 0 0 0 0 0 0
0 0 0 0 0 0 0 0 0 0 0 0 0 0 0 0 0 0 0 0 0 0 0 0 0 0 0 0 0 0 0 0 0 0 0 0 0 0 0 0 0 0 0 0
0 0 0 0 0 0 0 0 0 0 0 0 0 0 0 0 0 0 0 0 0 0 0 0 0 0 0 0 0 0 0 0 0 0 0 0 0 0 0 0 0 0 0 0
0 0 0 0 0 0 0 0 0 0 0 0 0 0 0 0 0 0 0 0 0 0 0 0 0 0 0 0 0 0 0 0 0 0 0 0 0 0 0 0 0 0 0 0
0 0 0 0 0 0 0 0 0 0 0 0 0 0 0 0 0 0 0 0 0 0 0 0 0 0 0 0 0 0 0 0 0 0 0 0 0 0 0 0 0 0 0 0
0 0 0 0 0 0 0 0 0 0 0 0 0 0 0 0 0 0 0 0 0 0 0 0 0 0 0 0 0 0 0 0 0 0 0 0 0 0 0 0 0 0 0 0
0 0 0 0 0 0 0 0 0 0 0 0 0 0 0 0 0 0 0 0 0 0 0 0 0 0 0 0 0 0 0 0 0 0 0 0 0 0 0 0 0 0 0 0
0 0 0 0 0 0 0 0 0 0 0 0 0 0 0 0 0 0 0 0 0 0 0 0 0 0 0 0 0 0 0 0 0 0 0 0 0 0 0 0 0 0 0 0
0 0 0 0 0 0 0 0 0 0 0 0 0 0 0 0 0 0 0 0 0 0 0 0 0 0 0 0 0 0 0 0 0 0 0 0 0 0 0 0 0 0 0 0
0 0 0 0 0 0 0 0 0 0 0 0 0 0 0 0 0 0 0 0 0 0 0 0 0 0 0 0 0 0 0 0 0 0 0 0 0 0 0 0 0 0 0 0
0 0 0 0 0 0 0 0 0 0 0 0 0 0 0 0 0 0 0 0 0 0 0 0 0 0 0 0 0 0 0 0 0 0 0 0 0 0 0 0 0 0 0 0
Height
5811 5814 5816 5819 5821 5823 5825 5828 5829 5830 5831 5833 5834 5835 5836 5837 5838 5840 5841 5841 5842 5842 5843 5843 5843 5843 5842 5841 5840 5839 5838 5836 5835 5832 5830 5827 5824 5821 5817 5814 5810 5807 5803 5799
5811 5813 5815 5817 5819 5821 5823 5826 5827 5829 5830 5831 5832 5833 5834 5834 5836 5837 5838 5839 5840 5841 5841 5841 5840 5840 5840 5839 5839 5837 5836 5835 5833 5831 5828 5825 5822 5819 5815 5812 5808 5804 5800 5796
5810 5813 5814 5816 5818 5820 5822 5824 5826 5827 5829 5830 5831 5832 5833 5833 5834 5835 5836 5838 5838 5838 5839 5838 5838 5838 5838 5838 5837 5836 5835 5833 5831 5829 5827 5824 5820 5817 5813 5810 5806 5802 5798 5794
5811 5812 5814 5815 5818 5819 5821 5822 5824 5826 5827 5828 5830 5831 5832 5832 5833 5834 5835 5836 5836 5837 5837 5837 5836 5836 5836 5836 5835 5834 5833 5832 5830 5828 5825 5822 5819 5815 5812 5808 5804 5800 5796 5792
5812 5813 5814 5816 5817 5819 5820 5822 5824 5825 5826 5828 5829 5830 5832 5831 5832 5833 5833 5834 5835 5835 5835 5835 5835 5835 5834 5834 5833 5832 5832 5830 5828 5826 5824 5820 5817 5814 5810 5806 5802 5798 5794 5790
5813 5814 5815 5816 5817 5819 5820 5822 5824 5825 5826 5827 5828 5829 5831 5831 5831 5831 5832 5832 5833 5833 5833 5833 5833 5833 5833 5832 5831 5831 5830 5828 5827 5824 5822 5819 5816 5812 5809 5805 5801 5797 5792 5788
5814 5815 5816 5817 5818 5819 5821 5823 5824 5825 5825 5827 5828 5829 5830 5830 5830 5830 5830 5831 5831 5831 5831 5831 5831 5831 5831 5830 5830 5829 5828 5826 5825 5823 5820 5817 5814 5811 5807 5803 5799 5795 5791 5787
5815 5816 5817 5817 5818 5820 5821 5823 5825 5825 5825 5826 5827 5827 5829 5828 5828 5828 5828 5829 5829 5829 5829 5829 5829 5829 5829 5828 5828 5827 5826 5824 5823 5821 5818 5816 5813 5809 5806 5802 5798 5794 5790 5786
5817 5817 5817 5818 5819 5820 5821 5822 5823 5824 5824 5825 5826 5827 5827 5827 5827 5827 5827 5827 5827 5827 5827 5827 5827 5827 5827 5826 5826 5825 5824 5822 5821 5819 5817 5814 5811 5808 5804 5801 5797 5793 5789 5785
5818 5818 5818 5819 5820 5821 5821 5822 5823 5824 5824 5824 5825 5825 5826 5826 5826 5826 5826 5826 5826 5826 5825 5825 5825 5825 5825 5824 5824 5823 5822 5820 5819 5817 5815 5812 5809 5806 5803 5800 5796 5792 5788 5784
5819 5820 5820 5820 5820 5821 5822 5822 5822 5823 5823 5824 5824 5827 5825 5825 5824 5824 5825 5824 5824 5824 5824 5823 5823 5823 5822 5822 5821 5821 5819 5818 5817 5815 5813 5810 5808 5805 5801 5798 5795 5791 5787 5784
5820 5820 5820 5820 5820 5820 5821 5821 5822 5823 5822 5822 5823 5827 5823 5823 5822 5822 5822 5822 5822 5822 5822 5821 5821 5820 5820 5819 5819 5818 5817 5816 5814 5813 5811 5808 5806 5803 5800 5797 5794 5790 5787 5783
5820 5820 5820 5820 5822 5821 5820 5820 5820 5821 5821 5821 5821 5824 5821 5821 5821 5820 5820 5820 5820 5819 5819 5819 5818 5818 5817 5816 5816 5815 5815 5813 5812 5810 5808 5806 5804 5801 5798 5795 5792 5789 5786 5782
5820 5820 5820 5821 5819 5819 5819 5819 5818 5818 5818 5819 5819 5819 5819 5818 5818 5818 5817 5817 5816 5816 5816 5815 5815 5814 5814 5814 5813 5813 5812 5811 5809 5808 5806 5804 5802 5799 5797 5794 5791 5788 5785 5781
5818 5819 5818 5818 5818 5817 5817 5817 5817 5816 5816 5816 5816 5816 5816 5815 5815 5815 5814 5814 5813 5813 5812 5812 5811 5811 5811 5810 5810 5809 5808 5808 5806 5805 5803 5801 5799 5797 5795 5792 5789 5786 5784 5780
5817 5817 5816 5816 5816 5815 5815 5815 5814 5814 5813 5813 5813 5813 5812 5812 5812 5811 5811 5810 5810 5809 5809 5808 5808 5807 5807 5807 5806 5806 5805 5804 5803 5802 5800 5799 5797 5794 5792 5790 5787 5785 5782 5779
5815 5814 5814 5814 5813 5813 5813 5812 5811 5810 5810 5810 5809 5810 5809 5808 5808 5807 5807 5806 5806 5805 5805 5805 5804 5803 5803 5803 5802 5802 5801 5800 5799 5798 5797 5795 5794 5792 5790 5788 5785 5783 5780 5777
5812 5811 5810 5810 5811 5810 5811 5808 5807 5806 5806 5805 5805 5805 5804 5804 5803 5803 5802 5802 5801 5801 5800 5800 5800 5799 5799 5798 5798 5797 5797 5796 5795 5794 5793 5792 5790 5788 5787 5785 5783 5781 5778 5776
5808 5807 5806 5806 5805 5806 5806 5804 5802 5801 5801 5800 5800 5799 5799 5798 5798 5797 5797 5796 5796 5796 5795 5795 5795 5795 5794 5794 5793 5793 5792 5791 5791 5790 5789 5787 5786 5785 5783 5782 5780 5778 5776 5773
5803 5802 5802 5800 5799 5800 5801 5799 5797 5797 5795 5795 5794 5794 5793 5792 5792 5792 5791 5791 5790 5790 5790 5789 5789 5789 5789 5788 5788 5788 5787 5786 5786 5785 5784 5783 5782 5781 5779 5778 5777 5775 5773 5771
5798 5797 5795 5794 5793 5793 5793 5792 5792 5791 5791 5789 5787 5787 5786 5786 5785 5785 5784 5784 5784 5783 5783 5783 5783 5783 5783 5782 5782 5782 5782 5781 5781 5780 5779 5778 5778 5777 5775 5774 5773 5771 5770 5768
5791 5790 5789 5787 5786 5788 5785 5784 5783 5782 5781 5780 5780 5779 5779 5778 5777 5777 5777 5776 5776 5776 5776 5776 5776 5776 5776 5776 5776 5776 5775 5775 5774 5774 5774 5773 5772 5772 5771 5770 5769 5767 5766 5765
5782 5782 5780 5780 5780 5778 5776 5775 5774 5773 5772 5771 5771 5770 5770 5769 5769 5768 5768 5767 5767 5767 5768 5768 5768 5769 5769 5768 5768 5768 5768 5768 5768 5768 5768 5767 5767 5766 5765 5765 5764 5763 5762 5761
5774 5772 5771 5769 5769 5768 5767 5765 5764 5763 5762 5761 5761 5761 5760 5760 5760 5759 5759 5758 5758 5758 5759 5759 5759 5760 5760 5760 5760 5760 5760 5760 5760 5760 5760 5760 5760 5760 5759 5759 5758 5757 5757 5756
5765 5763 5760 5759 5759 5757 5757 5755 5754 5753 5752 5751 5751 5750 5750 5749 5749 5749 5749 5749 5749 5749 5749 5749 5749 5750 5750 5751 5751 5751 5752 5752 5752 5752 5753 5753 5753 5753 5753 5752 5752 5752 5751 5750
5754 5751 5749 5749 5748 5745 5746 5745 5743 5742 5741 5740 5739 5739 5738 5738 5738 5738 5738 5738 5738 5738 5738 5739 5739 5740 5740 5740 5741 5742 5742 5743 5743 5743 5744 5744 5745 5745 5745 5745 5745 5745 5745 5744
Wind_Speed
9 10 11 11 11 13 12 11 11 11 11 10 8 7 8 9 8 8 7 6 5 5 5 5 5 5 5 5 5 6 7 9 11 13 14 15 16 17 18 19 19 19 20 19
7 9 10 10 11 11 10 10 9 10 8 7 7 6 6 7 7 7 7 6 6 5 5 5 5 5 5 5 6 6 7 9 11 13 14 15 16 17 18 19 19 19 20 20
6 7 8 8 9 9 8 8 10 9 8 7 6 5 5 5 6 6 5 5 5 5 5 5 5 5 5 5 6 6 7 9 11 13 14 15 16 17 18 18 19 19 19 20
6 6 7 8 7 7 7 7 8 7 6 6 5 4 4 4 4 4 4 4 3 4 5 5 5 5 5 6 6 6 7 9 11 12 14 15 16 17 18 18 19 19 20 20
5 5 5 6 6 7 6 8 7 6 5 5 4 4 3 3 3 3 3 3 3 4 5 5 5 5 6 6 6 6 7 8 11 12 14 15 16 17 18 18 19 19 20 20
5 5 4 5 5 6 6 6 5 5 5 4 4 3 2 1 2 3 3 3 4 4 4 5 5 5 6 6 6 7 8 9 10 12 13 14 15 16 17 18 19 19 20 20
6 5 5 5 5 5 5 5 5 6 6 5 4 2 2 1 0 1 3 4 4 4 4 5 5 6 6 6 6 7 8 9 10 12 13 14 15 16 17 18 19 19 19 19
6 6 5 5 5 4 5 5 5 5 5 5 4 2 1 1 2 2 3 4 4 5 5 5 6 6 6 7 7 7 8 9 10 12 13 14 14 15 16 18 18 19 19 19
7 6 5 5 4 4 5 5 4 5 5 5 4 2 0 1 2 3 3 4 4 5 5 6 7 7 7 7 7 8 9 9 10 11 12 13 14 15 16 17 18 18 18 19
6 6 5 4 3 3 4 4 4 5 5 5 4 3 2 3 3 3 3 4 4 5 6 7 8 8 8 8 8 8 9 9 10 11 12 13 14 15 16 16 17 18 18 18
5 4 4 3 3 3 3 3 3 4 5 5 6 4 5 5 5 5 4 5 5 5 7 7 8 9 9 9 9 9 9 10 10 11 12 13 13 14 15 16 16 17 18 18
3 3 2 2 3 3 3 3 4 5 5 6 7 6 7 6 6 6 6 6 6 7 7 8 8 9 10 10 10 10 10 10 11 11 12 13 13 14 14 15 16 16 17 18
2 1 1 1 1 1 2 3 5 6 7 7 8 7 7 7 7 7 7 7 8 8 9 9 9 9 10 11 10 10 10 11 11 11 12 13 13 13 14 14 15 16 16 17
2 1 1 1 2 3 4 5 6 7 8 9 9 10 9 10 9 9 9 9 10 10 9 10 10 10 10 11 11 11 11 11 12 12 12 13 13 13 13 14 14 15 16 16
3 2 3 3 4 5 5 5 7 9 10 11 10 11 11 12 12 11 11 11 12 12 12 12 12 11 11 11 11 11 12 12 12 12 12 13 13 13 13 13 14 15 15 16
5 5 5 5 6 7 7 7 8 10 12 12 12 12 13 13 13 13 13 13 13 13 13 13 12 12 12 12 12 12 12 12 13 12 13 13 13 13 13 13 14 14 14 15
7 8 8 8 9 9 9 10 11 11 13 14 13 13 14 14 14 14 14 14 15 15 14 14 13 13 13 13 13 13 13 13 14 13 13 14 14 13 13 13 13 14 14 14
10 10 11 11 11 11 11 13 13 14 14 14 15 15 15 15 15 16 16 16 16 16 16 15 15 15 15 15 15 14 14 14 15 15 14 14 14 14 14 13 13 13 13 13
13 13 14 14 14 13 14 15 17 17 17 16 16 17 17 17 18 18 18 18 18 18 17 17 16 16 16 16 16 16 16 16 16 16 15 15 15 15 14 14 13 13 13 13
16 16 17 17 17 17 17 18 19 19 19 18 19 19 20 20 20 19 20 20 20 19 19 18 18 18 18 18 18 17 17 17 17 17 16 16 16 15 15 14 14 13 13 13
18 19 20 21 21 20 19 19 20 21 21 21 22 22 22 22 22 22 22 22 22 22 21 20 20 20 20 20 20 19 19 19 18 18 18 17 17 16 16 15 14 14 13 13
22 22 23 24 24 23 23 23 23 24 24 24 24 24 25 25 25 24 24 24 24 24 24 23 23 22 22 22 21 21 21 20 20 20 19 19 18 17 17 16 16 15 14 14
25 26 27 27 27 26 26 26 27 27 27 27 27 27 27 27 27 27 27 27 26 26 27 27 26 25 25 24 24 23 23 22 22 21 21 20 20 19 18 18 17 16 16 15
28 29 30 30 30 29 30 30 30 30 31 31 30 30 30 29 29 29 29 30 30 29 29 29 29 28 27 27 26 26 25 24 24 23 23 22 22 21 20 20 19 18 17 17
30 32 33 33 33 33 33 33 34 33 33 33 33 34 33 32 31 31 31 31 31 31 31 31 31 31 30 30 29 28 28 27 26 25 25 24 24 23 22 22 21 20 19 19
32 34 36 36 35 37 35 35 36 36 36 35 35 35 36 36 35 34 34 34 33 33 33 34 33 33 33 32 31 30 30 29 28 28 27 27 26 25 24 23 23 22 21 21
Wind_Direction
215 211 212 220 224 225 225 227 233 231 226 230 232 236 241 238 231 228 229 236 242 243 249 257 264 272 287 296 302 313 324 332 334 336 338 339 340 340 340 339 337 336 336 334
199 198 204 207 208 214 215 221 222 220 223 226 226 236 236 227 221 218 221 225 233 244 254 264 269 273 284 294 303 313 320 329 333 336 338 339 341 342 341 341 340 338 338 337
172 183 194 200 205 205 201 205 210 215 223 224 226 235 226 219 214 217 221 219 229 246 255 265 271 273 280 289 301 310 319 328 332 336 338 340 342 343 343 343 342 341 340 339
162 173 186 190 194 196 197 197 201 202 212 211 215 219 221 222 222 218 214 212 240 259 261 262 270 276 279 285 295 306 317 325 330 334 338 340 343 344 345 345 344 343 342 341
139 155 169 184 189 196 193 190 193 200 205 201 202 209 204 207 205 223 224 227 249 258 256 257 267 272 275 283 290 301 311 320 328 333 337 340 342 344 346 347 347 346 346 344
114 125 137 163 178 186 181 183 189 195 199 202 194 187 176 174 202 219 233 248 264 251 250 259 267 271 275 286 294 300 306 316 326 332 336 339 341 343 346 348 349 348 348 347
101 111 123 142 158 167 174 181 185 185 181 180 172 166 142 133 174 248 255 264 273 269 267 270 272 272 277 285 291 299 306 314 323 329 333 336 339 342 346 349 350 350 350 350
100 111 118 127 141 154 167 176 183 180 179 180 174 166 186 31 3 328 301 283 279 275 271 273 277 278 279 285 292 299 306 313 320 326 331 334 338 342 346 348 349 351 352 353
92 101 115 125 133 145 161 169 181 182 183 185 183 170 226 337 346 331 313 295 286 287 283 279 279 280 281 286 293 299 304 311 318 325 329 333 337 341 344 347 349 351 353 355
74 88 103 117 131 148 160 163 164 184 192 207 214 226 267 288 311 325 326 315 301 298 296 287 281 279 280 285 291 298 303 307 314 321 327 331 335 338 341 345 349 351 353 355
62 77 99 116 133 158 174 188 201 208 217 217 222 238 267 280 295 308 316 312 305 301 297 289 282 279 280 283 289 294 299 304 311 318 325 329 333 337 341 345 348 351 353 354
45 66 93 113 130 159 188 206 226 229 230 242 251 251 261 273 289 299 307 310 306 301 296 290 283 279 278 279 283 288 293 300 308 315 320 325 329 334 339 342 345 349 352 353
35 69 108 128 166 218 234 247 252 247 251 259 263 267 263 274 288 298 302 301 302 300 298 294 286 280 277 276 279 283 287 293 302 310 316 321 326 331 335 339 342 345 348 351
5 13 312 276 260 263 260 264 264 262 262 266 274 274 272 276 285 291 292 292 295 294 294 292 286 281 277 275 276 280 283 289 296 304 311 316 320 325 330 335 340 343 346 349
317 308 300 290 273 274 279 287 281 271 268 268 274 275 275 278 282 286 285 285 287 290 292 289 285 281 278 274 273 276 280 285 291 298 305 311 316 320 325 330 334 338 342 345
299 300 295 290 283 280 281 282 281 278 276 274 276 279 279 279 283 283 284 285 285 284 286 286 282 279 278 275 272 273 277 281 286 293 299 305 311 315 319 324 328 332 336 340
293 294 289 286 287 284 279 279 277 279 280 281 282 282 282 282 284 284 281 282 282 279 280 282 280 277 275 275 273 273 275 278 283 288 294 299 304 308 312 317 322 327 330 335
291 290 288 283 282 282 281 279 279 280 280 280 279 279 281 282 280 280 280 280 279 277 277 277 276 275 275 274 274 275 275 276 279 284 288 293 297 302 307 311 316 321 324 329
290 289 288 286 283 281 280 279 280 281 281 280 279 278 279 280 279 279 279 279 278 278 276 275 274 272 274 274 274 274 275 276 278 281 285 288 292 296 301 305 310 314 318 322
287 287 287 286 285 284 283 281 280 278 277 277 276 276 277 277 278 279 277 276 276 276 277 276 273 271 271 273 273 273 273 274 276 278 281 284 287 290 294 298 303 308 311 315
284 285 286 286 286 285 284 282 280 277 276 274 274 275 276 276 277 276 275 274 274 274 275 274 273 271 270 270 271 271 271 271 272 274 276 279 282 285 287 290 295 299 303 307
284 284 285 286 285 284 283 281 279 278 277 277 276 276 276 275 275 275 274 272 271 272 272 272 271 270 270 270 271 270 269 269 269 270 272 275 277 280 282 285 288 292 295 299
283 285 285 285 284 283 281 278 278 278 279 279 278 278 277 275 274 274 274 272 271 269 269 269 269 268 268 269 269 270 268 267 267 267 269 271 273 275 277 280 283 285 288 291
282 283 282 282 282 280 277 275 275 276 277 277 277 276 276 275 274 274 273 273 272 270 268 267 266 267 267 267 266 267 267 266 266 266 267 268 269 271 273 276 278 281 283 286
281 280 280 280 280 277 276 275 275 275 274 274 274 274 274 274 273 272 272 271 270 270 269 267 266 265 265 265 266 266 265 265 265 265 265 266 267 268 270 272 275 277 279 281
279 278 278 279 278 277 277 275 274 273 273 273 272 272 272 273 273 272 271 270 269 268 268 267 266 265 264 264 264 265 264 263 263 263 263 263 264 265 266 268 270 273 275 277